Regional Weather Roundup
Issued by NWS

Home | Current Version | Previous Version | Graphics & Text | Print | Product List | Glossary On
Versions: 1 2 3 4 5 6 7 8 9 10 11 12 13 14 15 16 17 18 19 20 21 22 23 24 25 26 27
000
ASUS45 KBOI 261710
RWRID

IDAHO REGIONAL WEATHER ROUNDUP
NATIONAL WEATHER SERVICE BOISE ID
1100 AM MDT TUE JUL 26 2016

NOTE: "FAIR" INDICATES FEW OR NO CLOUDS BELOW 12000 FEET
WITH NO SIGNIFICANT WEATHER AND/OR OBSTRUCTIONS TO VISIBILITY

IDZ012-014-261800-
SOUTHWEST IDAHO


CITY           SKY/WX    TMP DP  RH WIND       PRES   REMARKS
BOISE          SUNNY     84  42  22 W7        30.01S
CALDWELL       NOT AVBL
MOUNTAIN HOME  SUNNY     82  42  24 NW2       30.02S
$$

IDZ016-017-261800-
SOUTHCENTRAL IDAHO


CITY           SKY/WX    TMP DP  RH WIND       PRES   REMARKS
BURLEY         SUNNY     79  50  36 CALM      30.08F
JEROME         SUNNY     78  31  17 S6        30.09F
TWIN FALLS     SUNNY     82  42  24 W8        30.09F
$$

IDZ019>023-261800-
SOUTHEAST IDAHO


CITY           SKY/WX    TMP DP  RH WIND       PRES   REMARKS
IDAHO FALLS    SUNNY     80  46  30 NW8       30.13F
POCATELLO      SUNNY     81  44  27 VRB6      30.11F
REXBURG        SUNNY     77  42  28 N6        30.14F
$$

IDZ006-010-011-018-031-032-261800-
CENTRAL IDAHO MOUNTAINS


CITY           SKY/WX    TMP DP  RH WIND       PRES   REMARKS
MCCALL         MOSUNNY   74  47  38 VRB5      30.16F
HAILEY         MOSUNNY   79  48  34 CALM      30.19F
STANLEY          N/A     71  36  27 CALM      30.25F
SALMON         SUNNY     72  43  35 E3        30.11F
CHALLIS        SUNNY     76  39  26 NE5       30.16F
$$

IDZ002-004-006-007-026-261800-
NORTHERN IDAHO


CITY           SKY/WX    TMP DP  RH WIND       PRES   REMARKS
LEWISTON       SUNNY     79  52  38 CALM      30.01S
LOWELL           N/A     72  53  51 CALM      30.03F
COEUR D`ALENE  MOSUNNY   77  55  47 N6        30.04S
MULLAN PASS    SUNNY     70  48  45 VRB3      30.24R
$$




USA.gov is the U.S. government's official web portal to all federal, state and local government web resources and services.